Volver al catálogo

FENGYUN 1C DEB

ActivoSSO
NORAD 31452·DEBRIS·🇨🇳 China

Lanzado May 10, 1999 desde Taiyuan Satellite Launch Center

Loading…

Próximos Pases (próximas 24 horas)

TLE

ActualizadoSource: Space-Track

Época: Sep 14, 2026, 04:20 UTC

1 31452U 99025BUQ 26257.18073786  .00000375  00000-0  21179-3 0  9990
2 31452  98.6832 241.5679 0041299  61.0244 299.5060 14.15522409  1004

Sigue FENGYUN 1C DEB en tiempo real con AllMySat

Download on the App Store